This is the latest recevied weather packets stored in our database for station/object OE9XVI-6. If no packets are shown the sender has not sent any weather packets the latest 10 day(s).
| Time | Temp. | Humidity | Pressure | Rain* | Wind** | Luminosity | Snow |
|---|---|---|---|---|---|---|---|
| 1777703222 | 13.33° C | 57% | 1025.8 hPa | 0 mm | - | - | - |
| 1777702622 | 13.33° C | 57% | 1025.6 hPa | 0 mm | - | - | - |
| 1777702023 | 12.78° C | 57% | 1025.6 hPa | 0 mm | - | - | - |
| 1777701422 | 12.78° C | 58% | 1025.8 hPa | 0 mm | - | - | - |
| 1777700823 | 12.22° C | 59% | 1025.6 hPa | 0 mm | - | - | - |
| 1777700223 | 12.22° C | 58% | 1025.6 hPa | 0 mm | - | - | - |
| 1777699623 | 11.67° C | 58% | 1025.6 hPa | 0 mm | - | - | - |
| 1777699023 | 11.67° C | 57% | 1025.5 hPa | 0 mm | - | - | - |
| 1777698422 | 11.67° C | 58% | 1025.5 hPa | 0 mm | - | - | - |
| 1777697823 | 11.11° C | 58% | 1025.4 hPa | 0 mm | - | - | - |
| 1777697223 | 11.67° C | 57% | 1025.4 hPa | 0 mm | - | - | - |
| 1777696623 | 11.11° C | 59% | 1025.4 hPa | 0 mm | - | - | - |
| 1777696023 | 10.56° C | 61% | 1025.4 hPa | 0 mm | - | - | - |
| 1777695423 | 10° C | 61% | 1025.4 hPa | 0 mm | - | - | - |
| 1777694823 | 10° C | 61% | 1025.3 hPa | 0 mm | - | - | - |
| 1777694223 | 10° C | 61% | 1025.3 hPa | 0 mm | - | - | - |
| 1777693623 | 10.56° C | 60% | 1025.3 hPa | 0 mm | - | - | - |
| 1777693023 | 10.56° C | 59% | 1025.3 hPa | 0 mm | - | - | - |
| 1777692423 | 11.11° C | 59% | 1025.3 hPa | 0 mm | - | - | - |
| 1777691823 | 10.56° C | 60% | 1025.3 hPa | 0 mm | - | - | - |
| 1777691223 | 10.56° C | 60% | 1025.3 hPa | 0 mm | - | - | - |
| 1777690638 | 10.56° C | 61% | 1025.3 hPa | 0 mm | - | - | - |
| 1777690023 | 10.56° C | 61% | 1025.4 hPa | 0 mm | - | - | - |
| 1777689423 | 10° C | 60% | 1025.4 hPa | 0 mm | - | - | - |
| 1777688823 | 10° C | 60% | 1025.4 hPa | 0 mm | - | - | - |
* Rain latest hour (hover to see other rain measurements)
** Current wind speed in m/s (hover to see current wind gust speed)